EW3708 Weather Reports


time (UTC)temp
F
wind
direction
speed
knots
gust
knots
rain 1hr
in
rain 24hr
in
rain mn
in
humidity
%
barometer
mb
20260504003031 51 238 0.0 1.7 0.00 0.00 0.00 44 1011.7
20260504001533 51 238 0.9 2.6 0.00 0.00 0.00 42 1011.5
20260504000030 52 238 1.7 4.3 0.00 0.00 0.00 40 1011.4
20260503234543 53 244 0.9 3.5 0.00 0.00 0.00 39 1011.2
20260503233031 53 282 2.6 5.2 0.00 0.00 0.00 38 1011.0
20260503231529 54 232 1.7 4.3 0.00 0.00 0.00 38 1011.1
20260503230040 54 201 0.9 4.3 0.00 0.00 0.00 37 1010.9
20260503224528 54 217 1.7 6.1 0.00 0.00 0.00 36 1010.9
20260503223028 55 227 2.6 7.0 0.00 0.00 0.00 35 1010.9
20260503221527 54 281 2.6 5.2 0.00 0.00 0.00 35 1010.9
20260503220042 54 247 1.7 5.2 0.00 0.00 0.00 34 1011.0
20260503214526 54 227 2.6 7.8 0.00 0.00 0.00 34 1010.8
20260503213025 54 240 3.5 7.8 0.00 0.00 0.00 34 1010.7
20260503211524 54 290 2.6 5.2 0.00 0.00 0.00 32 1010.6
20260503210023 54 314 2.6 8.7 0.00 0.00 0.00 33 1010.5
20260503204522 54 322 3.5 7.0 0.00 0.00 0.00 32 1010.4
20260503203029 55 294 1.7 7.0 0.00 0.00 0.00 31 1010.4
20260503201521 55 219 3.5 7.0 0.00 0.00 0.00 30 1010.6
20260503200019 54 230 3.5 7.0 0.00 0.00 0.00 29 1010.8
20260503194521 53 317 3.5 7.8 0.00 0.00 0.00 30 1010.8
20260503193017 54 194 2.6 7.0 0.00 0.00 0.00 30 1011.1
20260503191521 54 348 1.7 7.0 0.00 0.00 0.00 32 1011.2
20260503190017 53 293 1.7 7.8 0.00 0.00 0.00 34 1011.4
20260503184516 54 296 3.5 13.0 0.00 0.00 0.00 33 1011.7
20260503183017 53 152 3.5 8.7 0.00 0.00 0.00 33 1011.7
20260503181512 51 313 3.5 10.4 0.00 0.00 0.00 34 1011.9
20260503180017 52 329 3.5 8.7 0.00 0.00 0.00 35 1011.8
20260503174512 51 305 3.5 7.0 0.00 0.00 0.00 34 1012.0
20260503173011 52 318 3.5 7.8 0.00 0.00 0.00 34 1012.3
20260503171510 51 312 2.6 7.8 0.00 0.00 0.00 36 1012.1
20260503081510 37 32 0.9 3.5 0.00 0.01 0.00 71 1011.0
20260503071600 38 325 0.9 5.2 0.00 0.02 0.00 68 1011.0
20260503070106 39 282 1.7 3.5 0.00 0.02 0.00 67 1010.9
20260503054554 40 306 0.0 3.5 0.00 0.13 0.00 63 1011.2
20260503053048 40 290 0.9 4.3 0.00 0.13 0.00 62 1011.3
20260503051546 41 240 0.9 4.3 0.00 0.13 0.00 61 1011.5
20260503050044 41 286 0.9 2.6 0.00 0.13 0.00 61 1011.7
20260503044546 41 321 0.9 2.6 0.00 0.23 0.00 61 1011.8
20260503043042 41 303 1.7 3.5 0.00 0.23 0.00 62 1011.9
20260503041545 41 296 1.7 3.5 0.00 0.23 0.00 61 1012.0
20260503040041 42 284 0.9 2.6 0.00 0.23 0.00 63 1012.1
20260503034540 42 298 0.9 2.6 0.00 0.24 0.23 64 1012.1
20260503033035 42 302 0.9 3.5 0.00 0.24 0.23 62 1012.1
20260503031537 42 284 0.9 2.6 0.00 0.24 0.23 61 1012.1
20260503030132 43 290 0.9 4.3 0.00 0.24 0.23 61 1012.2
20260503024532 43 301 0.0 1.7 0.00 0.25 0.23 61 1012.2
20260503023030 43 301 0.9 2.6 0.00 0.25 0.23 58 1012.3
20260503021530 43 302 0.9 2.6 0.00 0.25 0.23 57 1012.3
20260503020030 44 300 0.9 2.6 0.00 0.25 0.23 56 1012.3
20260503014539 44 302 0.9 2.6 0.00 0.26 0.23 55 1012.3
20260503013029 44 288 0.0 2.6 0.00 0.26 0.23 55 1012.2
20260503011529 44 281 0.9 2.6 0.00 0.26 0.23 54 1012.1
20260503010028 45 281 0.0 0.9 0.00 0.26 0.23 55 1012.1
20260503004528 45 281 0.0 1.7 0.00 0.28 0.23 52 1011.7